AEHF-1 (USA 214) (36868 NORAD) Tracking and Keplerian Element Data

This shows tracking and keplerian element data for the satellite.

Feedback or suggestion? Click here.




ElementValue
Catalog36868
NameAEHF-1 (USA 214)
Epoch Orbit5344
Epoch Day34.8324416
Epoch Year2025
RAAN74.4275
Inclination6.971
Eccentricity0.0003848
Argument of Perigee233.2629
Mean Anonmoly156.2672
Mean Motion1.00277157
Decay Rate1.51E-06
L11 36868U 10039A 25034.83244160 .00000151 00000+0 00000+0 0 9991
L22 36868 6.9710 74.4275 0003848 233.2629 156.2672 1.00277157 53440



Live tracking and technical data element details for AEHF-1 (USA 214) (NORAD 36868). AEHF-1 (USA 214) can be tracked NOW for your location showing map with azimuth and elevation plus other details from your city location.







IsCatalogInMostPopularTable: catalog: 36868, numindb: 290
Update: records affected: 1



GetName: 36868 AEHF-1 (USA 214)

Hit Count: updated at: Thu, 22 May 2025 03:44:44 GMT